User: anonymous   Login
Location: Unspecified
(0.0000°N, 0.0000°E)
Time: 12:51:23
(UTC+00:00)
Language:

CUTE-I - Orbit

View from above orbital plane
View from above orbital plane
View from above satellite
View from above satellite

Ground track
Ground track

The orbit data is extracted from the following two-line orbital elements,

1 27844U 03031E   17229.92243447 +.00000060 +00000-0 +46673-4 0  9994
2 27844 098.6899 238.0312 0010026 162.1178 198.0354 14.22052682733050
Epoch (UTC): 17 August 2017 22:08:18
Eccentricity: 0.0010026
inclination: 98.6899°
perigee height: 811 km
apogee height: 825 km
right ascension of ascending node: 238.0312°
argument of perigee: 162.1178°
revolutions per day: 14.22052682
mean anomaly at epoch: 198.0354°
orbit number at epoch: 73305

The dashed part of the orbit path shows where the satellite is in the earth's shadow,  

DLR